Location: Asheville, NC
(35.6000°N, 82.5500°W)
Time: 16:28:04
(UTC-04:00)

ISS - Pass Details

Date: 09 May 2026
Orbit: 414 x 424 km, 51.6° (Epoch: 15 May)

Event Time Altitude Azimuth Distance (km) Brightness Sun altitude
Rises 21:49:50 0° 249° (WSW) 2,334 0.5 -16.1°
Reaches altitude 10° 21:52:04 10° 260° (W) 1,475 -0.4 -16.5°
Maximum altitude 21:55:03 31° 325° (NW) 748 -1.8 -17.0°
Drops below altitude 10° 21:58:04 10° 30° (NNE) 1,483 -0.9 -17.4°
Sets 22:00:19 0° 41° (NE) 2,349 0.0 -17.8°
